RH
38 22 21 19 22 22 22 24 22 15 17 17 17 17 16 16 22 26 35 35 38 34 30 51 61 52 38 29 41 70 86 100 100 79 40 40 28 20 12 12 11 12 13 12 12 11 11 11 12
72 44 23 21 23 27 25 28 24 26 22 19 19 18 17 16 17 21 20 22 16 14 21 90 92 92 79 83 61 77 78 55 85 92 78 68 58 30 14 13 13 13 14 15 14 14 15 14 16
39 60 28 24 22 27 26 31 35 22 26 26 21 18 18 18 14 14 22 17 16 14 13 42 74 88 100 100 91 100 70 68 75 68 55 50 32 15 16 18 16 14 14 14 16 16 17 17 20
44 58 42 25 33 23 24 35 37 30 22 27 29 22 16 17 17 15 15 16 18 18 20 47 78 75 96 100 73 59 42 44 48 40 42 44 24 19 18 19 21 20 20 21 21 22 20 22 19
68 40 94 40 38 33 24 24 32 44 37 23 21 27 28 18 17 20 17 20 22 23 18 19 22 44 59 27 38 43 30 33 38 47 34 24 22 20 17 14 14 19 23 24 22 19 24 19 20
100 62 89 97 79 42 22 27 31 34 46 42 22 24 27 36 23 17 19 18 20 27 28 22 24 23 28 33 41 22 20 26 29 24 24 24 22 19 17 14 14 16 18 19 19 20 23 22 27
100 68 62 100 51 87 41 26 25 25 37 49 24 26 32 35 45 30 17 18 20 19 18 35 39 30 34 34 27 23 23 28 23 22 21 21 20 20 21 15 17 16 17 22 25 22 25 31 34
91 80 69 100 75 100 78 24 26 32 24 53 47 27 25 34 42 50 34 18 18 24 27 26 25 41 57 61 42 23 27 34 25 25 24 24 20 18 21 19 16 17 19 25 31 29 29 34 45
83 75 80 100 84 100 100 37 21 39 35 25 96 36 26 23 34 52 53 36 20 16 23 32 31 29 40 59 79 68 66 66 41 36 37 33 31 25 22 28 24 18 22 32 45 41 35 43 59
92 100 99 99 97 94 97 56 31 49 53 27 44 58 64 24 27 33 42 54 40 23 17 23 34 34 32 39 56 73 82 86 86 81 69 71 58 43 26 32 32 35 36 37 42 32 37 44 52
93 100 99 94 100 96 100 71 61 85 76 50 26 90 90 33 21 37 40 56 49 42 27 19 21 30 36 33 32 52 74 94 100 98 94 87 95 84 53 30 35 30 33 48 48 40 34 43 61
100 100 100 100 100 100 97 92 80 100 100 74 50 43 100 84 30 29 57 70 65 58 46 30 20 20 24 36 41 32 31 51 67 74 63 84 96 90 69 55 36 31 29 38 60 71 67 49 55
100 100 100 100 100 100 100 78 74 100 100 100 87 52 74 86 64 24 32 81 81 71 67 52 30 23 20 23 29 37 42 34 34 35 35 37 61 87 79 73 68 60 52 40 40 55 59 74 68
73 70 97 100 100 100 99 95 97 100 96 99 93 76 98 33 91 28 27 70 100 87 75 73 54 34 28 21 22 26 35 43 43 44 42 40 35 46 74 84 92 100 79 48 40 38 46 62 74
53 55 44 74 100 100 100 100 100 100 100 100 82 89 99 65 100 65 26 36 56 100 100 83 74 49 36 30 23 22 22 28 42 51 53 51 46 45 38 43 82 83 74 58 56 40 38 38 44
60 52 48 35 78 95 100 100 100 100 100 100 100 98 100 93 80 87 38 22 32 48 100 100 87 60 46 42 29 24 22 20 25 34 38 48 58 61 54 43 42 59 86 87 60 54 45 50 57
100 100 100 75 58 74 78 100 100 100 100 100 100 100 100 100 87 99 100 67 45 25 60 100 100 87 70 61 50 36 27 24 23 23 27 36 45 53 57 48 48 51 56 68 63 60 67 86 86
46 91 100 100 58 73 94 90 79 100 100 100 100 100 94 100 90 100 94 100 79 54 22 38 100 100 91 83 76 73 53 33 27 25 21 24 29 38 41 41 46 44 49 50 56 56 69 84 74
63 70 100 99 99 69 52 81 65 100 100 100 100 100 100 100 100 100 87 100 74 85 68 32 29 71 100 100 98 87 80 69 43 30 24 24 25 28 31 35 38 41 44 48 47 51 61 64 89
44 79 64 91 54 51 48 48 62 62 98 100 100 100 100 100 100 100 86 100 83 78 76 64 43 24 35 95 100 100 96 88 78 64 34 29 31 33 30 27 30 32 33 39 50 66 63 95 100
56 53 74 99 100 85 73 64 76 62 82 100 100 100 100 100 100 100 100 100 78 98 96 90 72 44 37 64 100 100 100 100 100 97 86 57 38 42 49 58 76 84 69 38 49 55 71 87 92
76 64 53 52 83 71 62 84 68 64 47 64 100 100 100 89 100 100 100 100 98 100 100 100 76 42 41 71 93 100 100 100 100 100 100 98 91 87 76 71 84 74 95 90 66 54 49 48 45
78 75 66 60 56 59 62 56 84 62 51 47 56 99 100 100 100 100 100 91 99 97 89 100 97 57 36 49 57 100 100 100 100 100 100 100 100 100 100 67 84 47 55 100 100 96 91 92 68
100 91 95 99 87 64 82 92 84 95 58 70 49 47 90 100 100 97 100 100 100 99 95 100 96 79 76 52 39 56 96 98 100 100 100 100 100 100 100 100 87 44 38 58 96 100 100 100 100
75 83 94 89 85 98 100 93 75 88 94 100 80 78 71 100 98 55 87 100 100 100 100 100 100 100 100 73 44 43 52 97 100 100 100 100 100 100 100 100 100 85 56 56 49 39 46 82 81
100 99 100 86 100 100 100 100 100 100 99 100 99 89 66 95 87 53 98 100 100 100 97 97 100 100 95 88 55 50 53 71 100 100 100 100 100 100 100 100 100 100 99 83 73 65 48 41 50
100 99 92 100 100 99 94 95 100 100 100 100 100 100 91 79 88 65 98 68 98 93 100 100 100 100 100 94 59 46 48 66 70 100 98 96 97 100 100 100 100 100 100 100 99 91 74 70 69
97 100 100 100 100 100 88 98 97 100 100 100 100 100 99 99 94 82 100 68 100 93 99 100 100 100 100 100 98 74 74 86 98 100 100 100 100 100 100 100 92 83 97 100 100 100 96 86 79
100 100 100 100 100 85 98 100 100 100 100 100 100 100 100 100 100 97 100 81 92 100 100 100 100 100 100 100 100 96 97 100 92 90 100 100 100 100 100 100 100 93 96 99 98 100 100 100 100
100 100 100 99 88 100 100 86 100 100 100 100 100 100 100 100 100 100 100 100 100 100 100 100 100 100 100 100 100 100 100 100 100 100 100 100 100 100 100 100 100 100 81 96 100 100 100 100 100
Wind_Speed
49 46 49 48 52 55 57 57 57 49 36 25 21 22 20 18 12 11 8 10 13 17 20 19 13 13 14 17 16 17 19 23 22 17 15 14 15 14 14 14 12 11 11 12 12 13 12 10 12
48 47 48 48 49 56 55 58 58 57 55 49 35 26 25 25 17 10 11 9 13 17 18 11 10 15 19 19 17 18 17 16 18 18 16 16 15 14 11 11 11 12 11 13 12 11 13 13 13
44 46 46 45 46 47 49 53 57 55 58 57 53 37 27 21 19 16 12 10 12 15 15 14 14 17 18 21 17 16 18 13 13 13 14 14 14 15 15 14 15 15 15 15 16 16 16 14 14
40 43 45 45 46 44 47 50 54 55 57 56 53 50 38 24 18 19 16 9 11 17 14 9 10 13 16 17 17 16 13 14 12 12 13 15 17 18 19 20 19 18 18 16 17 18 16 10 13
37 43 40 43 46 45 45 44 46 49 52 54 51 52 52 42 25 18 19 18 15 17 18 12 8 7 12 15 16 17 16 14 15 17 17 16 15 14 16 18 20 20 18 20 17 13 13 11 12
40 39 44 34 38 42 39 46 40 44 50 51 51 54 53 54 52 34 24 22 20 18 18 16 14 12 10 13 13 12 13 14 17 20 19 14 15 17 18 17 17 16 15 17 15 12 13 13 19
34 36 36 35 47 34 33 41 45 43 48 46 49 52 52 55 55 54 44 28 22 20 20 17 16 15 11 12 12 10 10 15 18 20 20 21 19 20 22 19 14 13 13 14 15 14 15 16 19
26 29 33 36 41 34 28 39 43 43 45 45 45 50 51 52 54 53 53 44 30 20 18 21 19 18 15 15 14 11 11 15 18 20 21 23 24 25 22 23 20 17 16 17 18 19 20 23 26
25 21 27 38 38 35 34 42 41 43 41 44 39 48 48 50 51 52 52 51 46 34 24 21 20 20 20 19 17 17 19 19 19 18 18 21 19 22 24 22 22 22 21 22 21 21 21 23 26
26 25 28 28 32 30 35 43 41 39 34 41 46 44 41 43 48 50 53 52 49 44 36 25 22 23 20 20 19 22 23 22 22 22 23 21 20 22 23 22 23 20 23 24 24 23 23 24 27
27 31 39 31 27 28 36 40 42 39 33 38 42 39 40 39 44 47 48 51 51 47 44 35 26 20 19 19 18 20 22 25 26 25 23 25 24 22 20 20 19 21 23 23 27 28 29 30 27
33 28 32 37 25 27 36 37 36 42 36 38 37 39 36 38 38 43 47 44 47 47 45 42 34 26 21 19 19 20 20 21 23 25 25 22 22 21 19 18 21 25 25 24 27 27 29 30 31
31 33 34 39 32 36 36 37 39 39 38 38 36 39 35 41 37 40 41 42 40 41 43 43 41 35 30 24 24 22 21 20 22 23 23 24 24 24 22 20 21 24 25 26 28 30 28 27 29
36 37 37 39 41 41 34 33 30 36 39 38 40 37 33 38 33 35 35 41 36 39 38 36 35 35 33 31 27 24 24 23 24 24 22 23 23 25 26 29 31 30 29 27 28 30 29 28 29
42 39 44 45 43 42 39 38 32 34 41 41 40 39 37 31 28 32 28 40 40 37 35 33 28 27 29 30 28 27 27 24 24 26 27 27 25 24 25 29 32 32 30 28 29 30 30 30 31
55 52 53 48 48 43 40 40 39 40 37 37 49 42 37 31 31 38 24 27 36 45 38 28 27 22 22 25 26 27 28 26 24 27 30 31 30 29 26 25 28 30 29 32 31 32 31 32 33
60 58 61 54 53 51 49 42 40 47 42 39 46 47 41 36 34 36 36 28 28 34 43 35 27 25 23 23 24 24 25 28 27 25 26 29 31 32 32 33 30 30 30 30 32 32 32 33 34
60 63 60 59 54 56 53 51 46 45 44 43 42 39 46 42 37 36 36 35 28 28 32 41 35 28 26 27 25 27 27 27 28 28 27 27 28 32 35 35 35 36 38 39 37 35 33 34 35
67 64 65 66 63 57 57 56 50 50 49 46 45 45 48 46 42 36 37 39 39 34 32 32 39 42 39 32 30 29 30 28 27 30 29 29 29 30 31 34 38 41 42 41 42 40 39 39 38
72 69 71 72 67 64 62 60 58 54 51 51 47 47 49 49 44 42 43 40 40 38 35 33 33 40 46 46 42 36 34 34 32 30 29 30 30 31 30 30 31 33 35 38 39 38 37 38 38
78 77 78 74 73 68 69 62 62 60 55 52 54 52 49 46 46 48 47 41 43 40 38 38 35 38 45 47 46 48 46 43 40 38 37 33 31 30 31 35 39 40 40 39 35 36 38 38 39
85 86 79 77 78 75 74 67 66 64 61 57 58 62 56 53 49 50 51 47 50 43 43 41 40 45 45 48 48 47 48 49 48 47 46 44 40 39 37 38 39 39 40 42 42 44 44 43 41
84 89 85 83 81 82 77 70 70 70 63 63 64 66 64 64 62 57 54 52 48 46 47 46 42 43 46 48 51 46 45 51 52 53 52 51 48 48 42 40 41 40 40 41 45 47 50 49 47
93 92 90 90 86 86 79 83 69 74 69 70 64 69 68 67 65 61 58 56 53 53 53 49 48 47 45 48 52 50 50 50 51 52 54 54 54 52 52 48 45 45 41 42 44 46 52 54 53
96 95 96 93 90 91 89 87 73 78 76 79 72 74 73 73 70 64 61 61 59 59 54 53 53 49 47 47 52 55 55 54 52 53 53 52 53 52 52 54 51 51 48 48 45 43 48 49 54
105 104 103 93 101 99 91 85 81 86 81 83 81 77 76 76 72 68 69 65 61 62 56 55 55 51 50 51 53 55 57 56 55 56 56 57 53 54 55 55 53 54 57 56 55 48 42 44 42
111 113 98 110 107 103 88 86 84 85 88 87 87 83 84 81 78 73 73 68 66 63 61 58 57 54 54 53 55 57 58 59 59 57 56 56 57 57 56 53 54 55 57 59 60 57 53 49 50
111 109 109 110 108 102 91 88 83 85 89 85 88 84 87 85 83 78 77 72 70 68 62 60 61 59 58 56 56 58 60 61 63 60 59 61 61 61 60 57 53 55 57 61 63 63 60 55 55
106 104 111 102 107 98 94 89 81 83 86 79 82 85 85 84 80 75 74 73 73 69 67 61 60 59 59 57 59 61 62 60 64 66 64 62 62 60 63 59 55 56 60 63 62 66 66 61 55
109 107 98 105 96 99 98 93 78 79 84 80 82 81 87 85 80 76 74 75 72 68 62 58 58 59 62 61 59 63 63 62 64 68 69 66 64 61 60 60 60 59 64 64 62 62 63 65 58
Wind_Direction
24 26 24 29 31 31 34 34 35 36 34 22 11 4 358 351 339 334 345 346 314 296 289 289 270 273 277 282 289 303 313 306 294 283 284 292 295 295 296 295 296 291 291 292 283 275 271 277 285
21 22 23 26 27 32 29 28 29 32 34 34 22 6 7 7 349 324 308 310 335 325 299 296 287 278 281 284 277 291 309 308 300 282 284 287 286 287 295 299 296 284 282 284 285 283 288 285 285
16 26 23 23 23 25 25 25 26 27 28 29 31 19 4 1 5 352 326 320 349 347 316 287 283 289 297 283 285 294 319 313 306 297 285 284 287 287 284 286 280 278 275 283 286 290 290 292 301
23 17 11 17 15 17 19 20 23 24 25 27 30 30 27 15 1 1 6 353 360 9 2 320 303 309 313 301 313 310 314 310 302 290 284 293 292 291 292 294 286 278 277 281 281 286 292 305 313
10 7 5 12 13 10 15 15 20 21 22 22 26 30 30 31 25 19 17 24 14 6 10 19 346 329 311 320 311 306 314 325 320 313 309 300 294 299 298 290 283 274 266 278 287 289 297 297 307
356 1 1 6 4 6 13 15 18 20 21 20 23 23 26 26 31 26 17 19 23 15 357 358 1 351 337 312 291 307 317 319 320 318 314 305 308 311 308 312 294 283 273 278 288 300 304 300 301
339 356 355 357 350 360 7 13 13 18 16 21 22 21 20 21 24 26 27 14 10 8 13 3 343 336 335 329 295 294 309 315 316 313 309 306 306 316 313 315 318 297 285 285 294 303 306 307 320
337 338 348 352 345 355 8 1 353 1 5 11 17 14 17 18 19 23 24 26 16 360 359 5 4 353 330 328 313 291 298 303 300 302 302 298 295 302 309 308 305 305 298 300 300 299 307 309 313
333 322 340 336 340 340 7 343 357 354 1 3 3 8 13 14 17 14 20 22 23 15 358 353 359 359 344 333 324 311 301 302 298 291 300 303 302 294 294 296 297 292 292 295 293 293 302 309 312
318 319 321 324 327 328 333 333 343 350 359 2 358 0 1 13 9 12 12 15 20 21 15 358 347 349 348 341 327 314 309 310 302 295 298 304 312 316 296 291 297 300 294 292 296 283 291 299 306
313 315 317 314 312 323 312 325 334 342 355 355 354 352 355 13 2 3 4 9 10 15 18 15 360 341 343 342 333 321 310 305 305 300 304 295 298 309 315 293 282 300 305 301 292 284 284 292 298
311 315 313 310 307 317 308 320 328 335 342 354 352 354 345 6 5 358 360 359 5 7 10 13 13 359 340 329 333 332 324 317 308 305 305 299 293 292 299 297 285 293 295 290 293 296 284 279 290
310 310 309 310 305 313 310 321 327 327 340 337 351 347 354 343 359 356 356 353 357 1 2 5 8 10 8 349 331 322 322 324 321 321 313 306 295 294 278 286 288 290 289 289 291 294 291 284 286
296 301 306 312 310 312 309 321 324 326 327 328 336 335 341 339 350 354 349 352 346 353 353 356 1 4 4 3 357 340 326 317 316 319 317 317 315 300 288 280 286 284 286 284 288 294 293 292 291
292 297 302 302 304 310 307 309 316 314 316 321 319 326 332 345 334 346 346 351 349 340 344 347 352 357 356 355 360 358 350 328 315 311 309 311 309 309 306 292 286 287 289 289 288 288 291 294 290
286 290 290 295 298 299 304 305 302 306 313 317 314 322 327 332 326 326 333 344 348 342 334 336 337 342 342 341 346 353 354 351 327 309 302 305 311 309 303 300 292 292 294 295 293 291 289 292 293
283 287 282 284 292 292 297 298 301 302 306 304 310 317 318 320 322 320 325 325 335 337 335 327 325 327 326 326 328 333 341 346 342 330 316 306 303 304 304 301 298 293 293 292 292 292 292 295 297
275 281 282 282 282 289 292 294 297 303 303 301 307 308 306 311 317 318 316 316 320 327 329 332 320 316 310 313 311 316 320 328 332 336 335 321 309 301 300 302 301 299 300 297 295 292 294 297 299
276 279 281 282 283 281 286 288 291 293 296 300 302 301 302 306 308 311 309 311 316 316 318 320 323 324 312 304 297 300 300 304 314 320 322 328 323 318 312 306 301 300 298 299 297 294 294 296 300
270 271 272 273 276 279 282 285 285 288 292 298 299 300 301 304 305 302 303 305 311 313 310 315 314 315 317 320 305 294 295 296 301 306 305 307 314 313 315 318 320 318 312 307 302 297 296 296 301
269 270 273 273 273 278 278 280 281 286 286 286 292 290 295 306 303 300 301 300 307 310 310 309 317 314 314 317 315 306 305 301 299 301 299 298 304 305 306 308 310 312 311 312 316 313 308 303 295
266 268 270 271 272 273 277 276 281 281 283 283 284 287 290 293 297 301 303 299 303 306 307 304 313 317 310 310 310 307 303 308 306 302 299 298 297 294 299 303 306 307 308 300 302 307 305 306 305
267 269 270 269 270 271 276 275 275 278 280 280 281 285 288 289 289 294 298 296 297 297 300 298 305 307 305 304 303 307 308 304 305 303 303 301 300 299 296 293 300 299 302 303 297 297 297 297 299
264 266 267 268 270 271 274 273 273 277 276 278 282 280 284 286 286 290 296 298 295 297 298 297 300 302 297 297 299 301 305 311 306 302 299 299 300 300 301 295 287 295 299 298 297 301 295 298 300
265 266 267 267 272 270 268 270 274 274 276 275 278 279 280 281 283 287 291 292 291 293 294 297 296 302 302 300 298 298 301 304 309 304 300 295 297 299 298 298 290 285 290 296 296 295 291 292 295
261 263 263 271 266 268 266 271 272 274 277 272 275 277 277 280 282 284 290 292 293 291 293 295 292 293 296 296 292 292 296 301 304 309 306 302 295 293 293 295 294 290 287 284 289 293 289 292 292
263 262 267 263 264 266 269 269 267 272 271 272 275 275 276 277 277 280 284 288 292 293 291 293 294 292 294 291 293 289 289 296 299 303 307 306 306 297 292 291 292 292 289 280 284 289 290 294 292
260 265 261 264 267 266 266 268 268 269 268 272 274 275 275 276 276 276 281 285 289 290 289 290 293 293 293 292 293 291 290 293 298 300 302 303 304 302 299 295 290 288 288 286 284 283 287 292 293
260 259 262 261 264 266 267 263 266 267 270 270 271 274 276 275 276 279 279 283 285 286 288 288 289 290 293 292 294 294 292 294 295 297 299 300 298 297 299 294 289 285 286 287 289 286 282 285 289
257 257 261 265 263 266 263 264 266 268 270 269 268 271 272 275 277 280 280 282 285 286 287 283 286 288 290 289 290 293 295 294 294 297 296 296 294 286 288 292 290 289 290 286 285 290 291 289 287